K4VI Weather Reports


Display with metric or nautical units.
time (UTC)temp
F
wind
direction
speed
MPH
gust
MPH
rain 1hr
in
rain 24hr
in
rain mn
in
humidity
%
barometer
mb
20260904131503 60 231 1.0 4.0 0.00 0.00 0.00 45 1039.3
20260904131003 60 270 3.0 9.0 0.00 0.00 0.00 45 1039.3
20260904130503 60 307 5.0 11.0 0.00 0.00 0.00 45 1039.2
20260904130221 60 315 5.0 11.0 0.00 0.00 0.00 46 1039.1
20260904125503 60 312 4.0 9.0 0.00 0.00 0.00 45 1038.9
20260904125003 61 313 4.0 12.0 0.00 0.00 0.00 45 1038.8
20260904124503 61 315 5.0 13.0 0.00 0.00 0.00 45 1038.9
20260904124218 61 309 4.0 13.0 0.00 0.00 0.00 45 1038.7
20260904123503 61 305 6.0 15.0 0.00 0.00 0.00 45 1038.7
20260904123219 61 305 5.0 15.0 0.00 0.00 0.00 45 1038.7
20260904122503 60 291 2.0 8.0 0.00 0.00 0.00 46 1038.6
20260904122004 60 290 3.0 8.0 0.00 0.00 0.00 45 1038.5
20260904121503 60 278 2.0 8.0 0.00 0.00 0.00 45 1038.5
20260904121221 60 265 1.0 4.0 0.00 0.00 0.00 44 1038.5
20260904120503 61 303 4.0 13.0 0.00 0.00 0.00 43 1038.4
20260904120003 62 312 5.0 13.0 0.00 0.00 0.00 44 1038.3
20260904115503 62 312 6.0 17.0 0.00 0.00 0.00 43 1038.3
20260904115003 62 310 6.0 17.0 0.00 0.00 0.00 43 1038.2
20260904114503 62 304 5.0 11.0 0.00 0.00 0.00 43 1038.3
20260904114219 62 307 4.0 11.0 0.00 0.00 0.00 43 1038.1
20260904113503 62 307 5.0 12.0 0.00 0.00 0.00 43 1038.0
20260904113003 62 307 6.0 15.0 0.00 0.00 0.00 42 1038.1
20260904112503 62 309 8.0 15.0 0.00 0.00 0.00 42 1038.1
20260904112003 63 309 8.0 15.0 0.00 0.00 0.00 42 1038.0
20260904111503 63 313 8.0 16.0 0.00 0.00 0.00 42 1038.0
20260904111003 63 309 9.0 16.0 0.00 0.00 0.00 41 1038.0
20260904110719 63 307 9.0 16.0 0.00 0.00 0.00 41 1038.1
20260904110003 62 310 9.0 16.0 0.00 0.00 0.00 42 1038.0
20260904105503 62 309 8.0 17.0 0.00 0.00 0.00 42 1038.2
20260904105003 63 301 8.0 17.0 0.00 0.00 0.00 41 1038.1
20260904104503 63 305 7.0 18.0 0.00 0.00 0.00 41 1038.1
20260904104004 63 308 8.0 19.0 0.00 0.00 0.00 41 1038.2
20260904103503 62 302 8.0 19.0 0.00 0.00 0.00 41 1037.9
20260904103003 62 305 8.0 12.0 0.00 0.00 0.00 42 1038.1
20260904102504 62 313 8.0 16.0 0.00 0.00 0.00 43 1038.0
20260904102003 61 316 7.0 16.0 0.00 0.00 0.00 43 1038.1
20260904101503 60 313 6.0 12.0 0.00 0.00 0.00 44 1037.9
20260904101003 60 312 7.0 12.0 0.00 0.00 0.00 44 1037.9
20260904100503 60 319 5.0 11.0 0.00 0.00 0.00 44 1037.9
20260904100003 60 323 5.0 9.0 0.00 0.00 0.00 44 1037.9
20260904095503 60 322 4.0 9.0 0.00 0.00 0.00 43 1037.8
20260904095003 60 323 3.0 7.0 0.00 0.00 0.00 43 1038.0
20260904094717 60 323 3.0 8.0 0.00 0.00 0.00 42 1038.0
20260904094003 60 309 3.0 8.0 0.00 0.00 0.00 42 1037.9
20260904093503 60 295 2.0 7.0 0.00 0.00 0.00 42 1037.9
20260904093003 61 296 2.0 8.0 0.00 0.00 0.00 41 1037.9
20260904092503 61 89 2.0 8.0 0.00 0.00 0.00 41 1037.9
20260904092003 61 99 2.0 4.0 0.00 0.00 0.00 38 1037.9
20260904091503 62 311 3.0 11.0 0.00 0.00 0.00 37 1037.8
20260904091003 62 328 3.0 11.0 0.00 0.00 0.00 38 1037.8
20260904090503 62 117 2.0 10.0 0.00 0.00 0.00 37 1037.9
20260904090004 63 122 3.0 11.0 0.00 0.00 0.00 36 1037.8
20260904085503 63 305 4.0 14.0 0.00 0.00 0.00 36 1037.8
20260904085003 64 294 5.0 15.0 0.00 0.00 0.00 36 1037.7
20260904084503 64 297 7.0 18.0 0.00 0.00 0.00 35 1037.6
20260904084003 64 302 7.0 18.0 0.00 0.00 0.00 35 1037.6
20260904083503 63 307 7.0 18.0 0.00 0.00 0.00 34 1037.6
20260904083003 64 314 8.0 18.0 0.00 0.00 0.00 34 1037.6
20260904082503 63 313 9.0 17.0 0.00 0.00 0.00 34 1037.8
20260904082003 63 311 8.0 17.0 0.00 0.00 0.00 34 1038.0
20260904081503 62 314 7.0 14.0 0.00 0.00 0.00 35 1038.2
20260904081003 61 315 6.0 13.0 0.00 0.00 0.00 36 1038.2
20260904080503 60 312 4.0 12.0 0.00 0.00 0.00 35 1038.2
20260904080003 60 309 3.0 12.0 0.00 0.00 0.00 36 1038.2
20260904075503 60 286 1.0 8.0 0.00 0.00 0.00 36 1038.2
20260904075220 60 287 1.0 4.0 0.00 0.00 0.00 36 1038.3
20260904074718 60 299 2.0 4.0 0.00 0.00 0.00 36 1038.4
20260904074003 61 311 2.0 4.0 0.00 0.00 0.00 35 1038.2
20260904073503 61 308 3.0 9.0 0.00 0.00 0.00 35 1038.2
20260904073003 60 309 4.0 9.0 0.00 0.00 0.00 36 1038.3
20260904072503 60 312 4.0 9.0 0.00 0.00 0.00 36 1038.3
20260904072003 58 306 3.0 9.0 0.00 0.00 0.00 38 1038.3
20260904071503 59 290 1.0 4.0 0.00 0.00 0.00 38 1038.3
20260904071003 60 281 1.0 3.0 0.00 0.00 0.00 37 1038.3
20260904070503 61 278 1.0 3.0 0.00 0.00 0.00 36 1038.5
20260904070003 62 275 2.0 7.0 0.00 0.00 0.00 35 1038.5
20260904065503 62 266 3.0 7.0 0.00 0.00 0.00 35 1038.5
20260904065003 62 274 2.0 8.0 0.00 0.00 0.00 35 1038.4
20260904064719 62 275 3.0 8.0 0.00 0.00 0.00 35 1038.4
20260904064003 62 267 4.0 8.0 0.00 0.00 0.00 35 1038.4
20260904063503 62 254 4.0 8.0 0.00 0.00 0.00 34 1038.5
20260904063003 63 180 4.0 11.0 0.00 0.00 0.00 34 1038.4
20260904062503 63 165 5.0 12.0 0.00 0.00 0.00 33 1038.5
20260904062003 63 157 5.0 12.0 0.00 0.00 0.00 33 1038.5
20260904061503 63 149 5.0 15.0 0.00 0.00 0.00 33 1038.4
20260904061003 63 154 5.0 15.0 0.00 0.00 0.00 33 1038.5
20260904060503 63 159 4.0 12.0 0.00 0.00 0.00 34 1038.6
20260904060004 63 163 4.0 12.0 0.00 0.00 0.00 34 1038.5
20260904055503 63 161 4.0 10.0 0.00 0.00 0.00 33 1038.5
20260904055003 63 164 3.0 8.0 0.00 0.00 0.00 33 1038.5
20260904054503 63 185 2.0 6.0 0.00 0.00 0.00 33 1038.3
20260904054003 63 199 2.0 7.0 0.00 0.00 0.00 33 1038.3
20260904053503 63 176 2.0 7.0 0.00 0.00 0.00 33 1038.3
20260904053003 63 175 2.0 5.0 0.00 0.00 0.00 34 1038.3
20260904052503 63 217 2.0 4.0 0.00 0.00 0.00 34 1038.3
20260904052219 63 220 2.0 4.0 0.00 0.00 0.00 34 1038.3
20260904051503 63 174 2.0 8.0 0.00 0.00 0.00 34 1038.4
20260904051003 63 161 3.0 8.0 0.00 0.00 0.00 35 1038.3
20260904050503 63 156 3.0 8.0 0.00 0.00 0.00 35 1038.4
20260904050004 63 153 3.0 7.0 0.00 0.00 0.00 35 1038.4
20260904045503 62 161 2.0 7.0 0.00 0.00 0.00 35 1038.4
20260904045003 63 197 1.0 3.0 0.00 0.00 0.00 35 1038.4
20260904044503 63 184 2.0 5.0 0.00 0.00 0.00 35 1038.3
20260904044218 63 160 2.0 5.0 0.00 0.00 0.00 35 1038.3
20260904043503 63 160 2.0 8.0 0.00 0.00 0.00 35 1038.4
20260904043003 63 169 2.0 8.0 0.00 0.00 0.00 35 1038.5
20260904042503 63 169 2.0 5.0 0.00 0.00 0.00 35 1038.5
20260904042003 64 173 2.0 6.0 0.00 0.00 0.00 35 1038.6
20260904041718 64 177 3.0 7.0 0.00 0.00 0.00 36 1038.6
20260904041003 64 180 2.0 7.0 0.00 0.00 0.00 35 1038.7
20260904040503 64 170 2.0 6.0 0.00 0.00 0.00 35 1038.7
20260904040217 65 163 2.0 7.0 0.00 0.00 0.00 35 1038.7
20260904035503 65 148 3.0 8.0 0.00 0.00 0.00 35 1038.7
20260904035218 65 126 4.0 10.0 0.00 0.00 0.00 34 1038.7
20260904034503 66 85 4.0 11.0 0.00 0.00 0.00 34 1038.7
20260904034003 66 124 4.0 11.0 0.00 0.00 0.00 34 1038.7
20260904033503 66 181 3.0 8.0 0.00 0.00 0.00 34 1038.7
20260904033003 66 204 4.0 13.0 0.00 0.00 0.00 34 1038.7
20260904032503 66 187 4.0 13.0 0.00 0.00 0.00 33 1038.6
20260904032003 66 165 4.0 15.0 0.00 0.00 0.00 33 1038.6
20260904031503 66 176 5.0 15.0 0.00 0.00 0.00 33 1038.5
20260904031003 67 177 5.0 15.0 0.00 0.00 0.00 33 1038.5
20260904030503 66 200 4.0 14.0 0.00 0.00 0.00 33 1038.4
20260904030003 66 196 4.0 15.0 0.00 0.00 0.00 32 1038.3
20260904025721 66 181 4.0 15.0 0.00 0.00 0.00 32 1038.2
20260904025219 66 196 4.0 13.0 0.00 0.00 0.00 32 1038.3
20260904024721 67 213 3.0 10.0 0.00 0.00 0.00 32 1038.3
20260904024003 67 190 3.0 7.0 0.00 0.00 0.00 31 1038.3
20260904023717 67 181 3.0 9.0 0.00 0.00 0.00 31 1038.2
20260904023003 67 159 3.0 9.0 0.00 0.00 0.00 31 1038.1
20260904022503 67 136 3.0 17.0 0.00 0.00 0.00 30 1038.1
20260904022003 67 139 5.0 17.0 0.00 0.00 0.00 29 1037.9
20260904021503 67 137 5.0 17.0 0.00 0.00 0.00 29 1037.9
20260904021217 67 133 5.0 17.0 0.00 0.00 0.00 29 1037.8
20260904020503 68 127 3.0 8.0 0.00 0.00 0.00 28 1037.7
20260904020004 68 128 4.0 9.0 0.00 0.00 0.00 28 1037.7
20260904015721 68 124 4.0 10.0 0.00 0.00 0.00 27 1037.7
20260904015219 68 133 5.0 11.0 0.00 0.00 0.00 27 1037.7
20260904014503 68 164 3.0 9.0 0.00 0.00 0.00 27 1037.7
20260904014220 68 163 3.0 7.0 0.00 0.00 0.00 27 1037.6
20260904013718 69 144 2.0 6.0 0.00 0.00 0.00 26 1037.6
20260904013003 69 150 3.0 7.0 0.00 0.00 0.00 26 1037.5
20260904012503 69 151 4.0 9.0 0.00 0.00 0.00 26 1037.5
20260904012003 70 139 4.0 12.0 0.00 0.00 0.00 25 1037.6
20260904011503 70 147 4.0 12.0 0.00 0.00 0.00 25 1037.5
20260904011003 70 152 4.0 10.0 0.00 0.00 0.00 24 1037.4
20260904010721 70 146 5.0 11.0 0.00 0.00 0.00 24 1037.4
20260904010003 71 150 4.0 11.0 0.00 0.00 0.00 23 1037.3
20260904005503 71 166 4.0 11.0 0.00 0.00 0.00 23 1037.4
20260904005003 72 179 4.0 11.0 0.00 0.00 0.00 23 1037.3
20260904004503 72 160 4.0 12.0 0.00 0.00 0.00 23 1037.3
20260904004003 73 156 4.0 12.0 0.00 0.00 0.00 22 1037.3
20260904003719 73 165 4.0 10.0 0.00 0.00 0.00 22 1037.3
20260904003003 74 155 4.0 10.0 0.00 0.00 0.00 21 1037.3
20260904002503 75 151 5.0 13.0 0.00 0.00 0.00 21 1037.2
20260904002003 75 164 5.0 13.0 0.00 0.00 0.00 20 1037.3
20260904001504 76 195 4.0 10.0 0.00 0.00 0.00 20 1037.3
20260904001003 76 211 3.0 8.0 0.00 0.00 0.00 20 1037.3
20260904000503 76 210 4.0 10.0 0.00 0.00 0.00 20 1037.3
20260904000004 76 162 4.0 10.0 0.00 0.00 0.00 20 1037.3
20260903235503 76 151 4.0 10.0 0.00 0.00 0.00 19 1037.3
20260903235220 76 174 3.0 10.0 0.00 0.00 0.00 19 1037.3
20260903234503 76 146 5.0 10.0 0.00 0.00 0.00 20 1037.2
20260903234003 76 143 4.0 10.0 0.00 0.00 0.00 19 1037.4
20260903233719 76 144 4.0 16.0 0.00 0.00 0.00 20 1037.3
20260903233003 76 155 6.0 16.0 0.00 0.00 0.00 20 1037.4
20260903232503 76 142 6.0 14.0 0.00 0.00 0.00 20 1037.3
20260903232003 76 147 5.0 14.0 0.00 0.00 0.00 20 1037.2
20260903231721 76 158 5.0 14.0 0.00 0.00 0.00 20 1037.2
20260903231003 76 183 5.0 12.0 0.00 0.00 0.00 20 1037.3
20260903230503 76 161 5.0 14.0 0.00 0.00 0.00 20 1037.4
20260903230003 76 145 6.0 14.0 0.00 0.00 0.00 21 1037.5
20260903225503 76 141 5.0 14.0 0.00 0.00 0.00 20 1037.4
20260903225003 76 151 6.0 14.0 0.00 0.00 0.00 20 1037.5
20260903224503 76 143 6.0 13.0 0.00 0.00 0.00 20 1037.6
20260903224003 76 142 6.0 16.0 0.00 0.00 0.00 20 1037.4
20260903223720 77 148 5.0 16.0 0.00 0.00 0.00 20 1037.5
20260903223003 76 174 4.0 9.0 0.00 0.00 0.00 21 1037.5
20260903222503 76 169 4.0 16.0 0.00 0.00 0.00 21 1037.5
20260903222003 76 156 3.0 16.0 0.00 0.00 0.00 21 1037.6
20260903221503 76 117 4.0 11.0 0.00 0.00 0.00 22 1037.6
20260903221003 75 119 7.0 20.0 0.00 0.00 0.00 22 1037.8
20260903220503 75 134 7.0 20.0 0.00 0.00 0.00 22 1037.9
20260903220003 75 154 6.0 14.0 0.00 0.00 0.00 22 1037.9
20260903215503 74 183 5.0 14.0 0.00 0.00 0.00 23 1037.8
20260903215003 74 195 4.0 16.0 0.00 0.00 0.00 22 1037.7
20260903214503 76 152 4.0 16.0 0.00 0.00 0.00 21 1037.9
20260903214003 76 132 5.0 13.0 0.00 0.00 0.00 21 1037.8
20260903213503 76 150 5.0 13.0 0.00 0.00 0.00 21 1037.9
20260903213003 76 204 4.0 11.0 0.00 0.00 0.00 23 1037.9
20260903212503 75 176 4.0 16.0 0.00 0.00 0.00 23 1038.0
20260903212003 75 164 5.0 16.0 0.00 0.00 0.00 23 1038.1
20260903211717 75 169 5.0 15.0 0.00 0.00 0.00 23 1038.2
20260903211004 74 168 6.0 14.0 0.00 0.00 0.00 23 1038.3
20260903210503 74 171 6.0 14.0 0.00 0.00 0.00 23 1038.3
20260903210003 73 145 7.0 21.0 0.00 0.00 0.00 24 1038.3
20260903205503 73 133 10.0 26.0 0.00 0.00 0.00 24 1038.3
20260903205003 74 153 8.0 26.0 0.00 0.00 0.00 23 1038.4
20260903204503 75 164 6.0 14.0 0.00 0.00 0.00 23 1038.5
20260903204003 75 134 6.0 17.0 0.00 0.00 0.00 24 1038.4
20260903203503 75 148 6.0 17.0 0.00 0.00 0.00 24 1038.4
20260903203004 74 168 5.0 16.0 0.00 0.00 0.00 25 1038.5
20260903202717 74 169 5.0 16.0 0.00 0.00 0.00 25 1038.5
20260903202003 73 206 4.0 12.0 0.00 0.00 0.00 27 1038.7
20260903201503 72 158 6.0 17.0 0.00 0.00 0.00 27 1038.7
20260903201003 72 146 7.0 18.0 0.00 0.00 0.00 28 1038.7
20260903200719 72 165 4.0 18.0 0.00 0.00 0.00 28 1038.8
20260903200217 72 224 3.0 14.0 0.00 0.00 0.00 29 1038.7
20260903195503 72 168 5.0 14.0 0.00 0.00 0.00 29 1039.0
20260903195003 71 188 5.0 12.0 0.00 0.00 0.00 29 1038.9
20260903194721 71 241 5.0 12.0 0.00 0.00 0.00 29 1039.1
20260903194219 71 240 5.0 14.0 0.00 0.00 0.00 28 1038.9
20260903193503 72 139 6.0 19.0 0.00 0.00 0.00 29 1039.0
20260903193003 71 160 6.0 19.0 0.00 0.00 0.00 30 1039.0
20260903192503 71 269 6.0 13.0 0.00 0.00 0.00 29 1039.2
20260903192004 70 285 6.0 13.0 0.00 0.00 0.00 28 1039.2
20260903191503 70 269 6.0 13.0 0.00 0.00 0.00 28 1039.2
20260903191003 70 266 5.0 13.0 0.00 0.00 0.00 28 1039.2
20260903190503 71 268 6.0 15.0 0.00 0.00 0.00 29 1039.3
20260903190004 70 257 7.0 15.0 0.00 0.00 0.00 30 1039.2
20260903185503 69 261 7.0 15.0 0.00 0.00 0.00 31 1039.1
20260903185003 69 273 7.0 15.0 0.00 0.00 0.00 29 1039.2
20260903184503 70 260 5.0 12.0 0.00 0.00 0.00 29 1039.3
20260903184003 70 199 4.0 11.0 0.00 0.00 0.00 30 1039.3
20260903183504 70 157 4.0 13.0 0.00 0.00 0.00 31 1039.4
20260903183003 69 160 5.0 13.0 0.00 0.00 0.00 32 1039.5
20260903182718 69 193 5.0 13.0 0.00 0.00 0.00 31 1039.5
20260903182003 68 237 5.0 12.0 0.00 0.00 0.00 34 1039.6
20260903181503 67 257 7.0 16.0 0.00 0.00 0.00 35 1039.5
20260903181217 67 262 7.0 16.0 0.00 0.00 0.00 37 1039.5
20260903180503 66 252 8.0 16.0 0.00 0.00 0.00 36 1039.3
20260903180004 66 257 10.0 17.0 0.00 0.00 0.00 37 1039.3
20260903175503 65 264 11.0 17.0 0.00 0.00 0.00 39 1039.4
20260903175004 66 262 9.0 16.0 0.00 0.00 0.00 37 1039.7
20260903174503 66 250 7.0 16.0 0.00 0.00 0.00 37 1039.8
20260903174003 66 246 6.0 14.0 0.00 0.00 0.00 40 1039.9
20260903173503 66 264 7.0 14.0 0.00 0.00 0.00 39 1040.0
20260903173003 65 280 7.0 18.0 0.00 0.00 0.00 39 1040.1
20260903172503 66 271 7.0 18.0 0.00 0.00 0.00 39 1040.1
20260903172003 66 255 6.0 17.0 0.00 0.00 0.00 39 1040.1
20260903171503 66 265 6.0 14.0 0.00 0.00 0.00 39 1040.2
20260903171218 66 271 6.0 14.0 0.00 0.00 0.00 39 1040.3
20260903170503 66 239 4.0 10.0 0.00 0.00 0.00 40 1040.2
20260903170003 66 174 5.0 13.0 0.00 0.00 0.00 41 1040.0
20260903165717 66 167 5.0 13.0 0.00 0.00 0.00 41 1040.1
20260903165003 66 141 6.0 14.0 0.00 0.00 0.00 41 1040.2
20260903164503 65 166 5.0 14.0 0.00 0.00 0.00 41 1040.1
20260903164003 64 212 5.0 12.0 0.00 0.00 0.00 42 1040.0
20260903163503 64 244 6.0 12.0 0.00 0.00 0.00 41 1040.1
20260903163003 64 265 6.0 13.0 0.00 0.00 0.00 40 1040.0
20260903162503 65 248 4.0 13.0 0.00 0.00 0.00 39 1040.0
20260903162003 64 178 5.0 15.0 0.00 0.00 0.00 41 1040.0
20260903161503 64 177 5.0 15.0 0.00 0.00 0.00 42 1040.0
20260903161218 64 213 4.0 10.0 0.00 0.00 0.00 41 1040.1
20260903160503 64 223 4.0 9.0 0.00 0.00 0.00 43 1039.9
20260903160003 64 247 4.0 9.0 0.00 0.00 0.00 42 1039.9
20260903155503 64 270 4.0 9.0 0.00 0.00 0.00 43 1039.9
20260903155220 63 277 4.0 11.0 0.00 0.00 0.00 43 1039.9
20260903154503 63 264 4.0 11.0 0.00 0.00 0.00 43 1039.9
20260903154003 62 262 4.0 8.0 0.00 0.00 0.00 45 1039.8
20260903153503 62 259 4.0 9.0 0.00 0.00 0.00 44 1039.8
20260903153003 62 213 4.0 11.0 0.00 0.00 0.00 45 1039.9
20260903152503 62 186 4.0 11.0 0.00 0.00 0.00 45 1039.8
20260903152003 62 194 3.0 8.0 0.00 0.00 0.00 45 1039.8
20260903151503 62 224 3.0 8.0 0.00 0.00 0.00 44 1039.9
20260903151003 61 251 3.0 8.0 0.00 0.00 0.00 45 1039.9
20260903150503 61 258 3.0 8.0 0.00 0.00 0.00 45 1039.9
20260903150003 61 258 3.0 8.0 0.00 0.00 0.00 44 1039.9
20260903145718 61 252 2.0 7.0 0.00 0.00 0.00 45 1040.0
20260903145003 61 264 3.0 8.0 0.00 0.00 0.00 45 1039.9
20260903144503 61 254 3.0 7.0 0.00 0.00 0.00 44 1039.9
20260903144003 61 239 2.0 9.0 0.00 0.00 0.00 45 1039.9
20260903143503 60 233 2.0 9.0 0.00 0.00 0.00 45 1039.9
20260903143004 60 191 2.0 7.0 0.00 0.00 0.00 45 1039.9
20260903142503 60 217 1.0 4.0 0.00 0.00 0.00 45 1039.9
20260903142003 60 322 2.0 3.0 0.00 0.00 0.00 45 1039.8
20260903141503 60 291 2.0 7.0 0.00 0.00 0.00 46 1039.7
20260903141003 60 303 4.0 12.0 0.00 0.00 0.00 45 1039.7
20260903140503 60 313 5.0 13.0 0.00 0.00 0.00 45 1039.6
20260903140221 60 312 5.0 13.0 0.00 0.00 0.00 45 1039.5
20260903135503 59 312 5.0 14.0 0.00 0.00 0.00 46 1039.6
20260903135003 59 310 5.0 14.0 0.00 0.00 0.00 46 1039.5
20260903134503 59 308 4.0 12.0 0.00 0.00 0.00 47 1039.5
20260903134003 58 305 3.0 9.0 0.00 0.00 0.00 47 1039.4
20260903133503 58 304 3.0 10.0 0.00 0.00 0.00 47 1039.3
20260903133003 58 306 4.0 10.0 0.00 0.00 0.00 47 1039.3
20260903132503 58 310 4.0 8.0 0.00 0.00 0.00 47 1039.2
20260903132003 58 307 4.0 9.0 0.00 0.00 0.00 47 1039.1